This is the latest recevied weather packets stored in our database for station/object VK6WB. If no packets are shown the sender has not sent any weather packets the latest 10 day(s).
| Time | Temp. | Humidity | Pressure | Rain* | Wind** | Luminosity | Snow |
|---|---|---|---|---|---|---|---|
| 1778041205 | 21.67° C | 35% | 1024.3 hPa | 0 mm | - | 65 W/m² | - |
| 1778040604 | 21.67° C | 35% | 1024.5 hPa | 0 mm | - | 65 W/m² | - |
| 1778040005 | 21.67° C | 31% | 1024.5 hPa | 0 mm | - | 65 W/m² | - |
| 1778039404 | 21.67° C | 31% | 1024.7 hPa | 0 mm | - | 65 W/m² | - |
| 1778038804 | 21.11° C | 31% | 1024.7 hPa | 0 mm | - | 65 W/m² | - |
| 1778038204 | 21.11° C | 29% | 1025 hPa | 0 mm | - | 65 W/m² | - |
| 1778037605 | 21.11° C | 29% | 1025 hPa | 0 mm | - | 65 W/m² | - |
| 1778037004 | 20.56° C | 28% | 1025.1 hPa | 0 mm | - | 65 W/m² | - |
| 1778036405 | 20.56° C | 25% | 1025.2 hPa | 0 mm | - | 65 W/m² | - |
| 1778035804 | 20.56° C | 26% | 1025 hPa | 0 mm | - | 65 W/m² | - |
| 1778035205 | 20° C | 25% | 1025.1 hPa | 0 mm | - | 65 W/m² | - |
| 1778034604 | 19.44° C | 23% | 1025.3 hPa | 0 mm | - | 65 W/m² | - |
| 1778034004 | 19.44° C | 21% | 1025.3 hPa | 0 mm | - | 65 W/m² | - |
| 1778033404 | 18.89° C | 22% | 1025.4 hPa | 0 mm | - | 65 W/m² | - |
| 1778032805 | 18.33° C | 22% | 1025.4 hPa | 0 mm | - | 65 W/m² | - |
| 1778032204 | 18.33° C | 21% | 1025.5 hPa | 0 mm | - | 65 W/m² | - |
| 1778031604 | 17.78° C | 22% | 1025.5 hPa | 0 mm | - | 65 W/m² | - |
| 1778031004 | 17.22° C | 23% | 1025.5 hPa | 0 mm | - | 65 W/m² | - |
| 1778030404 | 16.67° C | 23% | 1025.5 hPa | 0 mm | - | 65 W/m² | - |
| 1778029804 | 25.56° C | 24% | 1025.5 hPa | 0 mm | - | 65 W/m² | - |
| 1778029204 | 16.11° C | 23% | 1025.4 hPa | 0 mm | - | 65 W/m² | - |
| 1778028604 | 15.56° C | 24% | 1025.4 hPa | 0 mm | - | 65 W/m² | - |
| 1778028004 | 15.56° C | 23% | 1025.2 hPa | 0 mm | - | 65 W/m² | - |
| 1778027404 | 15° C | 25% | 1025.2 hPa | 0 mm | - | 65 W/m² | - |
| 1778026804 | 15° C | 25% | 1025.1 hPa | 0 mm | - | 65 W/m² | - |
* Rain latest hour (hover to see other rain measurements)
** Current wind speed in m/s (hover to see current wind gust speed)